Time,TemperatureF,DewpointF,PressureIn,WindDirection,WindDirectionDegrees,WindSpeedMPH,WindSpeedGustMPH,Humidity,HourlyPrecipIn,Conditions,Clouds,dailyrainin,SoftwareType,DateUTC
2013-07-04 00:02:00,71.0,70.0,30.00,ENE,68,3.0,9.0,97,0.00,,,1.77,,2013-07-04 05:02:00,
2013-07-04 00:12:00,70.0,69.0,30.00,ENE,67,3.0,6.0,97,0.00,,,1.77,,2013-07-04 05:12:00,
2013-07-04 00:22:00,70.0,69.0,30.00,East,86,2.0,6.0,97,0.00,,,1.77,,2013-07-04 05:22:00,
2013-07-04 00:33:00,70.0,69.0,30.00,East,86,2.0,6.0,97,0.00,,,1.77,,2013-07-04 05:33:00,
2013-07-04 00:43:00,70.0,69.0,30.01,ENE,64,2.0,7.0,97,0.00,,,1.77,,2013-07-04 05:43:00,
2013-07-04 00:52:00,70.0,69.0,30.01,NE,51,5.0,10.0,97,0.00,,,1.77,,2013-07-04 05:52:00,
2013-07-04 01:01:00,70.0,69.0,30.00,NE,39,2.0,6.0,97,0.00,,,1.77,,2013-07-04 06:01:00,
2013-07-04 01:11:00,70.0,69.0,30.00,NE,39,2.0,6.0,97,0.00,,,1.77,,2013-07-04 06:11:00,
2013-07-04 01:22:00,70.0,69.0,30.01,ESE,105,0.0,7.0,98,0.00,,,1.77,,2013-07-04 06:22:00,
2013-07-04 01:34:00,70.0,69.0,30.00,NE,51,2.0,6.0,98,0.00,,,1.77,,2013-07-04 06:34:00,
2013-07-04 01:43:00,70.0,69.0,30.00,NE,51,2.0,6.0,98,0.00,,,1.77,,2013-07-04 06:43:00,
2013-07-04 01:53:00,70.0,69.0,29.99,ENE,65,2.0,6.0,98,0.00,,,1.77,,2013-07-04 06:53:00,
2013-07-04 02:02:00,70.0,69.0,29.98,East,84,2.0,7.0,98,0.00,,,1.77,,2013-07-04 07:02:00,
2013-07-04 02:12:00,70.0,69.0,29.98,East,84,2.0,7.0,98,0.00,,,1.77,,2013-07-04 07:12:00,
2013-07-04 02:22:00,70.0,69.0,29.98,ENE,68,2.0,7.0,98,0.00,,,1.77,,2013-07-04 07:22:00,
2013-07-04 02:34:00,70.0,69.0,29.98,ESE,120,2.0,6.0,98,0.00,,,1.77,,2013-07-04 07:34:00,
2013-07-04 02:43:00,70.0,69.0,29.98,ESE,120,2.0,6.0,98,0.00,,,1.77,,2013-07-04 07:43:00,
2013-07-04 02:52:00,71.0,70.0,29.97,ENE,68,3.0,5.0,98,0.00,,,1.77,,2013-07-04 07:52:00,
2013-07-04 03:02:00,71.0,70.0,29.97,SE,136,0.0,7.0,98,0.00,,,1.77,,2013-07-04 08:02:00,
2013-07-04 03:11:00,71.0,70.0,29.97,SE,136,0.0,7.0,98,0.00,,,1.77,,2013-07-04 08:11:00,
2013-07-04 03:22:00,71.0,70.0,29.97,ENE,63,2.0,4.0,98,0.00,,,1.77,,2013-07-04 08:22:00,
2013-07-04 03:33:00,71.0,70.0,29.98,ESE,122,1.0,4.0,98,0.01,,,1.78,,2013-07-04 08:33:00,
2013-07-04 03:42:00,71.0,70.0,29.98,ESE,122,1.0,4.0,98,0.01,,,1.78,,2013-07-04 08:42:00,
2013-07-04 03:53:00,71.0,70.0,29.98,East,89,0.0,5.0,98,0.02,,,1.79,,2013-07-04 08:53:00,
2013-07-04 04:02:00,71.0,70.0,29.97,ENE,72,1.0,6.0,98,0.05,,,1.82,,2013-07-04 09:02:00,
2013-07-04 04:11:00,71.0,70.0,29.97,ENE,72,1.0,6.0,98,0.05,,,1.82,,2013-07-04 09:11:00,
2013-07-04 04:22:00,71.0,70.0,29.97,NE,51,2.0,5.0,98,0.09,,,1.86,,2013-07-04 09:22:00,
2013-07-04 04:42:00,71.0,70.0,29.97,ESE,116,1.0,8.0,98,0.10,,,1.88,,2013-07-04 09:42:00,
2013-07-04 04:52:00,71.0,70.0,29.97,ESE,115,1.0,5.0,98,0.12,,,1.91,,2013-07-04 09:52:00,
2013-07-04 05:11:00,71.0,70.0,29.97,ENE,61,0.0,5.0,98,0.14,,,1.96,,2013-07-04 10:11:00,
2013-07-04 05:22:00,71.0,70.0,29.96,SE,129,1.0,5.0,98,0.13,,,1.99,,2013-07-04 10:22:00,
2013-07-04 05:34:00,71.0,70.0,29.96,SE,129,1.0,5.0,98,0.13,,,1.99,,2013-07-04 10:34:00,
2013-07-04 05:43:00,71.0,70.0,29.96,NE,53,4.0,8.0,98,0.12,,,2.00,,2013-07-04 10:43:00,
2013-07-04 05:53:00,71.0,70.0,29.96,NE,53,2.0,6.0,98,0.09,,,2.00,,2013-07-04 10:53:00,
2013-07-04 06:02:00,71.0,70.0,29.96,NE,53,2.0,6.0,98,0.09,,,2.00,,2013-07-04 11:02:00,
2013-07-04 06:11:00,71.0,70.0,29.96,ESE,110,2.0,5.0,98,0.04,,,2.00,,2013-07-04 11:11:00,
2013-07-04 06:22:00,71.0,70.0,29.96,ESE,110,2.0,5.0,98,0.04,,,2.00,,2013-07-04 11:22:00,
2013-07-04 06:34:00,71.0,70.0,29.97,ENE,72,1.0,5.0,98,0.01,,,2.00,,2013-07-04 11:34:00,
2013-07-04 06:43:00,71.0,70.0,29.97,SSE,154,1.0,6.0,98,0.01,,,2.00,,2013-07-04 11:43:00,
2013-07-04 06:53:00,71.0,70.0,29.98,East,80,1.0,4.0,98,0.02,,,2.02,,2013-07-04 11:53:00,
2013-07-04 07:02:00,71.0,70.0,29.98,East,80,1.0,4.0,98,0.02,,,2.02,,2013-07-04 12:02:00,
2013-07-04 07:12:00,71.0,70.0,29.98,NE,56,0.0,5.0,98,0.03,,,2.02,,2013-07-04 12:12:00,
2013-07-04 07:22:00,71.0,70.0,29.98,ENE,77,2.0,6.0,98,0.04,,,2.00,,2013-07-04 12:22:00,
2013-07-04 07:43:00,71.0,70.0,29.99,ENE,72,1.0,5.0,98,0.05,,,2.02,,2013-07-04 12:43:00,
2013-07-04 07:52:00,71.0,70.0,29.98,East,100,2.0,4.0,98,0.08,,,2.06,,2013-07-04 12:52:00,
2013-07-04 08:12:00,71.0,70.0,29.99,ENE,74,2.0,5.0,98,0.14,,,2.14,,2013-07-04 13:12:00,
2013-07-04 08:23:00,71.0,70.0,29.98,East,86,2.0,5.0,98,0.20,,,2.06,,2013-07-04 13:23:00,
2013-07-04 08:33:00,71.0,70.0,29.98,ENE,74,2.0,6.0,98,0.23,,,2.12,,2013-07-04 13:33:00,
2013-07-04 08:43:00,71.0,70.0,29.98,ENE,74,2.0,6.0,98,0.23,,,2.12,,2013-07-04 13:43:00,
2013-07-04 08:53:00,71.0,70.0,29.98,ENE,70,3.0,9.0,98,0.39,,,2.33,,2013-07-04 13:53:00,
2013-07-04 09:02:00,71.0,70.0,29.98,NE,40,1.0,6.0,98,0.45,,,2.45,,2013-07-04 14:02:00,
2013-07-04 09:11:00,71.0,70.0,29.98,NE,40,1.0,6.0,98,0.45,,,2.45,,2013-07-04 14:11:00,
2013-07-04 09:22:00,71.0,70.0,29.98,SSW,203,3.0,10.0,98,0.40,,,2.31,,2013-07-04 14:22:00,
2013-07-04 09:33:00,71.0,70.0,29.99,ESE,108,2.0,9.0,98,0.41,,,2.37,,2013-07-04 14:33:00,
2013-07-04 09:43:00,71.0,70.0,29.99,ESE,108,2.0,9.0,98,0.41,,,2.37,,2013-07-04 14:43:00,
2013-07-04 09:53:00,71.0,70.0,29.99,ENE,77,1.0,8.0,98,0.30,,,2.48,,2013-07-04 14:53:00,
2013-07-04 10:02:00,72.0,71.0,30.00,SSW,200,0.0,3.0,98,0.35,,,2.64,,2013-07-04 15:02:00,
2013-07-04 10:11:00,72.0,71.0,30.00,SSW,200,0.0,3.0,98,0.35,,,2.64,,2013-07-04 15:11:00,
2013-07-04 10:23:00,72.0,71.0,30.00,East,85,3.0,8.0,98,0.55,,,2.82,,2013-07-04 15:23:00,
2013-07-04 10:33:00,72.0,71.0,29.98,ESE,115,3.0,9.0,98,0.60,,,2.92,,2013-07-04 15:33:00,
2013-07-04 10:43:00,72.0,71.0,29.98,ESE,115,3.0,9.0,98,0.60,,,2.92,,2013-07-04 15:43:00,
2013-07-04 10:53:00,72.0,71.0,29.98,East,87,3.0,15.0,98,0.54,,,2.97,,2013-07-04 15:53:00,
2013-07-04 11:02:00,72.0,71.0,29.98,NNE,13,4.0,12.0,98,0.45,,,3.03,,2013-07-04 16:02:00,
2013-07-04 11:11:00,72.0,71.0,29.98,NNE,13,4.0,12.0,98,0.45,,,3.03,,2013-07-04 16:11:00,
2013-07-04 11:22:00,72.0,71.0,29.98,East,89,4.0,11.0,98,0.28,,,2.89,,2013-07-04 16:22:00,
2013-07-04 11:33:00,72.0,71.0,29.98,East,83,5.0,11.0,98,0.25,,,2.94,,2013-07-04 16:33:00,
2013-07-04 11:43:00,72.0,71.0,29.98,East,83,5.0,11.0,98,0.25,,,2.94,,2013-07-04 16:43:00,
2013-07-04 11:52:00,72.0,71.0,29.98,East,97,6.0,15.0,98,0.38,,,3.12,,2013-07-04 16:52:00,
2013-07-04 12:01:00,72.0,71.0,30.00,South,183,6.0,11.0,98,0.56,,,3.37,,2013-07-04 17:01:00,
2013-07-04 12:12:00,72.0,71.0,30.00,South,183,6.0,11.0,98,0.56,,,3.37,,2013-07-04 17:12:00,
2013-07-04 12:22:00,71.0,70.0,30.00,SE,127,4.0,13.0,97,0.79,,,3.47,,2013-07-04 17:22:00,
2013-07-04 12:43:00,72.0,71.0,30.00,ESE,114,3.0,7.0,97,0.92,,,3.64,,2013-07-04 17:43:00,
2013-07-04 12:53:00,71.0,70.0,29.98,East,91,4.0,9.0,97,0.79,,,3.70,,2013-07-04 17:53:00,
2013-07-04 13:01:00,71.0,70.0,29.98,NE,34,3.0,13.0,97,0.60,,,3.76,,2013-07-04 18:01:00,
2013-07-04 13:11:00,71.0,70.0,29.98,NE,34,3.0,13.0,97,0.60,,,3.76,,2013-07-04 18:11:00,
2013-07-04 13:22:00,71.0,70.0,29.97,East,89,4.0,12.0,97,0.32,,,3.59,,2013-07-04 18:22:00,
2013-07-04 13:33:00,72.0,71.0,29.96,SE,142,5.0,13.0,97,0.19,,,3.62,,2013-07-04 18:33:00,
2013-07-04 13:43:00,72.0,71.0,29.96,SE,142,5.0,13.0,97,0.19,,,3.62,,2013-07-04 18:43:00,
2013-07-04 13:52:00,72.0,71.0,29.95,SSE,153,7.0,19.0,97,0.16,,,3.64,,2013-07-04 18:52:00,
2013-07-04 14:02:00,71.0,70.0,29.94,East,99,5.0,14.0,97,0.14,,,3.68,,2013-07-04 19:02:00,
2013-07-04 14:12:00,71.0,70.0,29.94,East,99,5.0,14.0,97,0.14,,,3.68,,2013-07-04 19:12:00,
2013-07-04 14:22:00,71.0,70.0,29.95,NE,40,6.0,13.0,97,0.15,,,3.54,,2013-07-04 19:22:00,
2013-07-04 14:33:00,71.0,70.0,29.97,SE,141,3.0,10.0,97,0.15,,,3.57,,2013-07-04 19:33:00,
2013-07-04 14:43:00,71.0,70.0,29.97,SE,141,3.0,10.0,97,0.15,,,3.57,,2013-07-04 19:43:00,
2013-07-04 14:53:00,71.0,70.0,29.96,SE,128,2.0,6.0,97,0.13,,,3.57,,2013-07-04 19:53:00,
2013-07-04 15:02:00,71.0,70.0,29.97,South,169,3.0,9.0,97,0.09,,,3.57,,2013-07-04 20:02:00,
2013-07-04 15:11:00,71.0,70.0,29.97,South,169,3.0,9.0,97,0.09,,,3.57,,2013-07-04 20:11:00,
2013-07-04 15:22:00,71.0,70.0,29.97,SW,232,3.0,8.0,97,0.03,,,3.40,,2013-07-04 20:22:00,
2013-07-04 15:34:00,71.0,70.0,29.97,East,93,7.0,17.0,97,0.00,,,3.40,,2013-07-04 20:34:00,
2013-07-04 15:42:00,71.0,70.0,29.97,East,93,7.0,17.0,97,0.00,,,3.40,,2013-07-04 20:42:00,
2013-07-04 15:53:00,72.0,71.0,29.95,East,89,6.0,15.0,97,0.00,,,3.40,,2013-07-04 20:53:00,
2013-07-04 16:01:00,71.0,70.0,29.94,West,267,5.0,11.0,96,0.00,,,3.40,,2013-07-04 21:01:00,
2013-07-04 16:11:00,71.0,70.0,29.94,West,267,5.0,11.0,96,0.00,,,3.40,,2013-07-04 21:11:00,
2013-07-04 16:22:00,71.0,69.0,29.95,SE,129,5.0,15.0,95,0.00,,,3.30,,2013-07-04 21:22:00,
2013-07-04 16:32:00,71.0,69.0,29.95,SE,132,4.0,11.0,95,0.00,,,3.30,,2013-07-04 21:32:00,
2013-07-04 16:43:00,71.0,69.0,29.95,SE,132,4.0,11.0,95,0.00,,,3.30,,2013-07-04 21:43:00,
2013-07-04 16:53:00,71.0,69.0,29.95,SE,142,6.0,13.0,95,0.00,,,3.30,,2013-07-04 21:53:00,
2013-07-04 17:02:00,71.0,69.0,29.95,SE,134,5.0,12.0,95,0.00,,,3.30,,2013-07-04 22:02:00,
2013-07-04 17:12:00,71.0,69.0,29.95,SE,134,5.0,12.0,95,0.00,,,3.30,,2013-07-04 22:12:00,
2013-07-04 17:22:00,71.0,69.0,29.95,SSE,159,5.0,11.0,95,0.00,,,3.17,,2013-07-04 22:22:00,
2013-07-04 17:33:00,72.0,70.0,29.96,SSW,200,2.0,9.0,95,0.00,,,3.17,,2013-07-04 22:33:00,
2013-07-04 17:43:00,72.0,70.0,29.96,SSW,200,2.0,9.0,95,0.00,,,3.17,,2013-07-04 22:43:00,
2013-07-04 17:52:00,72.0,70.0,29.97,East,98,3.0,8.0,95,0.00,,,3.17,,2013-07-04 22:52:00,
2013-07-04 18:01:00,72.0,70.0,29.97,SW,233,4.0,14.0,93,0.00,,,3.17,,2013-07-04 23:01:00,
2013-07-04 18:12:00,72.0,70.0,29.97,SW,233,4.0,14.0,93,0.00,,,3.17,,2013-07-04 23:12:00,
2013-07-04 18:23:00,72.0,70.0,29.97,ESE,122,4.0,11.0,93,0.00,,,3.13,,2013-07-04 23:23:00,
2013-07-04 18:33:00,72.0,70.0,29.98,SSE,160,4.0,9.0,94,0.00,,,3.13,,2013-07-04 23:33:00,
2013-07-04 18:43:00,72.0,70.0,29.98,SSE,160,4.0,9.0,94,0.00,,,3.13,,2013-07-04 23:43:00,
2013-07-04 18:52:00,71.0,69.0,29.99,South,172,3.0,11.0,94,0.00,,,3.13,,2013-07-04 23:52:00,
2013-07-04 19:01:00,71.0,69.0,29.99,SE,127,4.0,11.0,94,0.00,,,3.13,,2013-07-05 00:01:00,
2013-07-04 19:11:00,71.0,69.0,29.99,SE,127,4.0,11.0,94,0.00,,,3.13,,2013-07-05 00:11:00,
2013-07-04 19:22:00,71.0,69.0,29.99,South,186,4.0,8.0,94,0.00,,,3.13,,2013-07-05 00:22:00,
2013-07-04 19:32:00,71.0,69.0,29.99,WSW,255,1.0,8.0,95,0.00,,,3.13,,2013-07-05 00:32:00,
2013-07-04 19:43:00,71.0,69.0,29.99,WSW,255,1.0,8.0,95,0.00,,,3.13,,2013-07-05 00:43:00,
2013-07-04 19:52:00,72.0,70.0,29.99,SSW,205,1.0,9.0,95,0.00,,,3.13,,2013-07-05 00:52:00,
2013-07-04 20:01:00,72.0,70.0,29.99,SSW,205,1.0,9.0,95,0.00,,,3.13,,2013-07-05 01:01:00,
2013-07-04 20:11:00,72.0,70.0,29.99,SSW,205,1.0,9.0,95,0.00,,,3.13,,2013-07-05 01:11:00,
2013-07-04 20:22:00,72.0,70.0,29.99,SE,129,2.0,8.0,95,0.00,,,3.13,,2013-07-05 01:22:00,
2013-07-04 20:32:00,72.0,70.0,29.99,SE,129,2.0,8.0,95,0.00,,,3.13,,2013-07-05 01:32:00,
2013-07-04 20:42:00,72.0,70.0,29.99,SE,129,2.0,8.0,95,0.00,,,3.13,,2013-07-05 01:42:00,
2013-07-04 20:52:00,71.0,70.0,29.99,ESE,117,1.0,6.0,97,0.00,,,3.10,,2013-07-05 01:52:00,
2013-07-04 21:02:00,71.0,70.0,29.99,ESE,117,1.0,6.0,97,0.00,,,3.10,,2013-07-05 02:02:00,
2013-07-04 21:11:00,71.0,70.0,29.99,ESE,117,1.0,6.0,97,0.00,,,3.10,,2013-07-05 02:11:00,
2013-07-04 21:22:00,71.0,70.0,30.00,SE,131,1.0,6.0,96,0.00,,,3.10,,2013-07-05 02:22:00,
2013-07-04 21:32:00,71.0,70.0,30.00,SE,131,1.0,6.0,96,0.00,,,3.10,,2013-07-05 02:32:00,
2013-07-04 21:43:00,71.0,70.0,30.00,SE,131,1.0,6.0,96,0.00,,,3.10,,2013-07-05 02:43:00,
2013-07-04 21:53:00,72.0,71.0,30.01,SW,228,2.0,9.0,96,0.00,,,3.06,,2013-07-05 02:53:00,
2013-07-04 22:02:00,72.0,71.0,30.01,SW,228,2.0,9.0,96,0.00,,,3.06,,2013-07-05 03:02:00,
2013-07-04 22:11:00,72.0,71.0,30.01,SW,228,2.0,9.0,96,0.00,,,3.06,,2013-07-05 03:11:00,
2013-07-04 22:22:00,72.0,70.0,30.04,SSW,210,0.0,3.0,95,0.00,,,3.06,,2013-07-05 03:22:00,
2013-07-04 22:32:00,72.0,70.0,30.04,SSW,210,0.0,3.0,95,0.00,,,3.06,,2013-07-05 03:32:00,
2013-07-04 22:42:00,72.0,70.0,30.04,SSW,210,0.0,3.0,95,0.00,,,3.06,,2013-07-05 03:42:00,
2013-07-04 22:52:00,71.0,70.0,30.05,SE,131,0.0,5.0,96,0.00,,,3.06,,2013-07-05 03:52:00,
2013-07-04 23:01:00,71.0,70.0,30.05,SE,131,0.0,5.0,96,0.00,,,3.06,,2013-07-05 04:01:00,
2013-07-04 23:11:00,71.0,70.0,30.05,SE,131,0.0,5.0,96,0.00,,,3.06,,2013-07-05 04:11:00,
2013-07-04 23:22:00,71.0,70.0,30.05,East,84,0.0,2.0,96,0.00,,,3.06,,2013-07-05 04:22:00,
2013-07-04 23:33:00,71.0,70.0,30.05,East,84,0.0,2.0,96,0.00,,,3.06,,2013-07-05 04:33:00,
2013-07-04 23:43:00,71.0,70.0,30.05,East,84,0.0,2.0,96,0.00,,,3.06,,2013-07-05 04:43:00,
2013-07-04 23:53:00,71.0,70.0,30.04,ENE,72,0.0,2.0,96,0.00,,,3.06,,2013-07-05 04:53:00,